Regional Weather Roundup
Issued by NWS State College, PA

Home | Current Version | Previous Version | Graphics & Text | Print | Product List | Glossary Off
Versions: 1 2 3 4 5 6 7 8 9 10 11 12 13 14 15 16 17 18 19 20 21 22 23 24 25 26 27 28 29 30 31 32 33 34 35 36 37 38 39 40 41 42 43 44 45 46 47 48 49 50

975
ASUS41 KCTP 110110
RWRCTP

REGIONAL WEATHER ROUNDUP
NATIONAL WEATHER SERVICE STATE COLLEGE PA
800 PM EST WED FEB 10 2016

Note: "fair" indicates few or no clouds below 12,000 feet with no
significant weather and/or obstructions to visibility.

* = STATION THAT DOES NOT REPORT PRECIPITATION /E.G. RAIN...SNOW...ETC/
    THUNDER OR FOG.

PAZ002>004-007>009-013>016-020>023-029>032-110200-
WESTERN PENNSYLVANIA

CITY           SKY/WX    TMP DP  RH WIND       PRES   REMARKS
ERIE           CLOUDY    20   6  55 NW14G25   29.87R WCI   7
MEADVILLE      LGT SNOW  15  10  80 W5        29.82S WCI   8
FRANKLIN*      CLOUDY    14   9  79 NW6       29.83S WCI   5
NEW CASTLE     CLOUDY    18  12  79 W7        29.88R WCI   8
BEAVER COUNTY  FLURRIES  18  16  93 W10       29.87R WCI   6
BUTLER*        CLOUDY    18  12  79 W7        29.89R VSB 3/4 WCI   8
PITTSBURGH INT LGT SNOW  17  11  77 W10       29.88R WCI   5
PITTSBURGH     PTCLDY    18   9  68 W16G24    29.87R WCI   3
INDIANA*       CLOUDY    18  16  93 W10       29.85S FOG     WCI   6
LATROBE        CLOUDY    18  10  73 W17       29.88R WCI   2
WASHINGTON CO* MOCLDY    18   9  68 SW17G23   29.90S WCI   2
$$

PAZ004>006-010>012-017>019-024>028-033>037-041-042-045-046-049>053-110200-
CENTRAL PENNSYLVANIA

CITY           SKY/WX    TMP DP  RH WIND       PRES   REMARKS
BRADFORD       CLOUDY    12   4  70 W13G20    29.72S WCI  -3
DUBOIS         LGT SNOW  15  10  80 W10       29.76R WCI   2
CLEARFIELD     FLURRIES  18  12  77 SW13G22   29.77S WCI   5
JOHNSTOWN      LGT SNOW  14   7  73 W12G22    29.74S WCI   0
ALTOONA        CLOUDY    18  10  71 SW12      29.81S WCI   5
STATE COLLEGE  MOCLDY    19  12  73 W13G21    29.79S WCI   7
WILLIAMSPORT   CLOUDY    25  13  60 W18       29.78R WCI  11
SELINSGROVE    CLOUDY    25  11  55 W5        29.83R
FT INDIANTOWN  MOCLDY    26  11  54 W12G18    29.82R WCI  15
CAPITAL CITY   CLOUDY    26  10  50 W15G22    29.84R WCI  14
HARRISBURG     CLOUDY    26  13  57 W16G23    29.84R WCI  14
YORK           CLOUDY    23  11  60 W12G17    29.84R WCI  12
$$

PAZ038>040-043-044-047-048-054-055-060>062-067>071-110200-
EASTERN PENNSYLVANIA

CITY           SKY/WX    TMP DP  RH WIND       PRES   REMARKS
SCRANTON       CLOUDY    26  16  65 SW14      29.71R WCI  14
MOUNT POCONO   CLOUDY    22  13  68 W15       29.64R WCI   9
ALLENTOWN      CLOUDY    29  15  56 W13G18    29.76S
QUAKERTOWN*    NOT AVBL
READING        CLOUDY    28  12  51 W16G22    29.80R
LANCASTER      CLOUDY    26  14  60 W16       29.81R WCI  14
COATESVILLE    CLOUDY    27  16  63 NW13      29.79S
POTTSTOWN      PTCLDY    27  15  61 W9        29.80S
BLUE BELL        N/A     30  18  59 CALM      29.78S
DOYLESTOWN     CLOUDY    27  14  58 VRB7      29.76S
WILLOW GROVE   NOT AVBL
NORTH PHILA    MOCLDY    32  17  54 W12       29.81R
PHILADELPHIA   CLOUDY    32  13  45 W15       29.82S
$$




USA.gov is the U.S. government's official web portal to all federal, state and local government web resources and services.